Weather History for MMTO - January, 2013

Change the Weather History Date:

Tuesday, January 29, 2013

  Actual Average Record
Temperature  
Mean Temperature 50 °F -  
Max Temperature 68 °F 66 °F 77 °F (2009)
Min Temperature 33 °F 31 °F 30 °F (1999)
Degree Days  
Heating Degree Days 14    
Moisture  
Dew Point 31 °F    
Average Humidity 58    
Maximum Humidity 93    
Minimum Humidity 20    
Precipitation  
Precipitation 0.00 in - - ()
Sea Level Pressure  
Sea Level Pressure 30.25 in    
Wind  
Wind Speed 3 mph ()    
Max Wind Speed 15 mph    
Max Gust Speed -    
Visibility 5.9 miles    
Events Fog    
Averages and records for this station are not official NWS values.
T = Trace of Precipitation, MM = Missing Value Source: Averaged Metar Reports

Daily Weather History Graph

Daily Weather History Graph

Search for Another Location

Airport or City:

Trip Planner

Search our weather history database for the weather conditions in past years. The results will help you decide how hot, cold, wet, or windy it might be!

Date:

Astronomy

Jan. 29, 2013 Rise Set
Actual Time 7:13 AM CST 6:29 PM CST
Civil Twilight 6:50 AM CST 6:52 PM CST
Nautical Twilight 6:24 AM CST 7:18 PM CST
Astronomical Twilight 5:57 AM CST 7:45 PM CST
Moon 8:55 PM CST (1/29) 8:39 AM CST (1/29)
Length of Visible Light 12h 01m
Length of Day
11h 16m
Waning Gibbous, 93% of the Moon is Illuminated
Jan 29
Waning Gibbous
Feb 3
Last Quarter
Feb 10
New
Feb 17
First Quarter
Feb 25
Full

Hourly Weather History & Observations

Time (CST) Temp. Windchill Dew Point Humidity Pressure Visibility Wind Dir Wind Speed Gust Speed Precip Events Conditions
12:45 AM 42.8 °F - 35.6 °F 76% 30.42 in 10.0 mi Calm Calm - N/A   Clear
1:45 AM 39.2 °F - 33.8 °F 81% 30.41 in 10.0 mi North - - N/A   Clear
2:45 AM 37.4 °F 32.8 °F 33.8 °F 87% 29.89 in - SSE 5.8 mph - N/A   Clear
3:45 AM 37.4 °F - 33.8 °F 87% 30.38 in 8.0 mi Calm Calm - N/A   Clear
4:45 AM 35.6 °F 31.7 °F 32.0 °F 87% 30.38 in 8.0 mi ENE 4.6 mph - N/A   Clear
5:45 AM 35.6 °F - 33.8 °F 93% 29.98 in 8.0 mi Calm Calm - N/A   Clear
6:45 AM 35.6 °F - 33.8 °F 93% 30.42 in 3.0 mi Calm Calm - N/A   Scattered Clouds
7:00 AM 33.8 °F - 32.0 °F 93% 30.41 in 1.0 mi Calm Calm - N/A Fog Fog
7:30 AM 35.6 °F - 33.8 °F 93% 30.42 in 1.0 mi Calm Calm - N/A Fog Fog
7:45 AM 35.6 °F - 33.8 °F 93% 30.42 in 3.0 mi Calm Calm - N/A   Partly Cloudy
8:45 AM 42.8 °F - 37.4 °F 81% 30.06 in 2.0 mi Calm Calm - N/A   Clear
9:45 AM 51.8 °F - 39.2 °F 62% 30.44 in 3.0 mi Calm Calm - N/A   Clear
10:45 AM 57.2 °F - 33.8 °F 41% 30.44 in 6.0 mi NW 3.5 mph - N/A   Clear
11:45 AM 60.8 °F - 33.8 °F 36% 29.96 in 6.0 mi NW 4.6 mph - N/A   Clear
12:45 PM 64.4 °F - 32.0 °F 30% 30.38 in 6.0 mi West 6.9 mph - N/A   Clear
1:45 PM 66.2 °F - 30.2 °F 26% 30.34 in 6.0 mi SSW 5.8 mph - N/A   Clear
2:45 PM 68.0 °F - 28.4 °F 23% 29.84 in 6.0 mi South 4.6 mph - N/A   Clear
3:45 PM 68.0 °F - 24.8 °F 20% 30.29 in 6.0 mi WSW 6.9 mph - N/A   Clear
4:45 PM 68.0 °F - 26.6 °F 21% 30.30 in 6.0 mi South 6.9 mph - N/A   Clear
5:45 PM 62.6 °F - 23.0 °F 22% 29.89 in 7.0 mi WNW 15.0 mph - N/A   Clear
6:45 PM 55.4 °F - 24.8 °F 31% 30.32 in 7.0 mi WNW 8.1 mph - N/A   Clear
7:45 PM 51.8 °F - 24.8 °F 35% 30.34 in 7.0 mi WNW 9.2 mph - N/A   Clear
8:45 PM 48.2 °F - 24.8 °F 40% 30.01 in 7.0 mi NW 8.1 mph - N/A   Clear
9:45 PM 44.6 °F 41.4 °F 24.8 °F 46% 30.38 in 7.0 mi NNE 5.8 mph - N/A   Clear
10:45 PM 42.8 °F - 26.6 °F 53% 30.37 in 7.0 mi Calm Calm - N/A   Clear
11:45 PM 39.2 °F 35.9 °F 24.8 °F 56% 29.94 in 6.0 mi ESE 4.6 mph - N/A   Clear